Location: Bonningues
(50.7927°N, 2.0150°E)
Time: 00:05:24
(UTC+00:00)

Cosmos 405 Rocket - Pass Details

Date: 08 August 2020
Orbit: 490 x 553 km, 81.3° (Epoch: 23 September)

Event Time Altitude Azimuth Distance (km) Brightness Sun altitude
Exits shadow 22:24:05 20° 237° (WSW) 1,192 4.4 -20.3°
Maximum altitude 22:26:03 34° 289° (WNW) 836 4.1 -20.5°
Drops below altitude 10° 22:29:30 10° 356° (N) 1,714 6.4 -20.7°
Sets 22:31:48 0° 6° (N) 2,612 7.3 -20.8°
